Regional Weather Roundup
Issued by NWS

Home | Current Version | Previous Version | Text Only | Print | Product List | Glossary Off
Versions: 1 2 3 4 5 6 7 8 9 10 11 12 13 14 15 16 17 18 19 20 21 22 23 24 25 26 27 28 29 30 31 32 33 34 35 36 37 38 39 40 41 42 43 44 45 46 47 48 49 50

000
ASUS43 KFSD 101710
RWRSD

WEATHER ROUNDUP FOR SOUTH DAKOTA
NATIONAL WEATHER SERVICE SIOUX FALLS SD
1100 AM CST WED FEB 10 2016

NOTE: "FAIR" INDICATES FEW OR NO CLOUDS BELOW 12,000 FEET WITH NO
SIGNIFICANT WEATHER AND/OR OBSTRUCTIONS TO VISIBILITY.


SDZ001>005-009-010-012>017-101800-
NORTHWEST AND NORTH CENTRAL SOUTH DAKOTA

CITY           SKY/WX    TMP DP  RH WIND       PRES   REMARKS
BUFFALO          N/A     49  25  39 NW26G36   29.86R
FAITH            N/A     48  26  42 NW24      29.86R
MOBRIDGE       SUNNY     32  23  69 SE10      29.85R WCI  24
$$

SDZ012>016-024>037-041>051-057-063-072>074-101800-
SOUTHWEST AND SOUTH CENTRAL SOUTH DAKOTA

CITY           SKY/WX    TMP DP  RH WIND       PRES   REMARKS
RAPID CTY ARPT SUNNY     63  21  20 NW24G31   29.89F
PIERRE         SUNNY     38  29  70 CALM      29.85S
CUSTER         SUNNY     54  14  20 NW14G28   29.97S
ELLSWORTH AFB  SUNNY     60  23  23 NW28G37   29.89S
PHILIP         SUNNY     54  29  38 NW16      29.87S
PINE RIDGE     SUNNY     51  25  36 W15       29.97R
SPEARFISH      FAIR      55  19  24 W16G26    29.98R
WINNER         FAIR      46  30  53 W9        29.86S
$$

SDZ004>011-016>023-039-040-101800-
NORTHEAST SOUTH DAKOTA

CITY           SKY/WX    TMP DP  RH WIND       PRES   REMARKS
ABERDEEN       CLOUDY    18  12  77 E9        29.97F WCI   7
WATERTOWN      LGT SNOW  11   5  77 SE12      29.96S WCI  -3
BROOKINGS      FLURRIES  13   8  81 E13       29.96F WCI  -2
SISSETON         N/A      9   5  84 S13       30.05R WCI  -7
$$

SDZ017-020-022-023-036>040-048>070-101800-
SOUTHEAST SOUTH DAKOTA

CITY           SKY/WX    TMP DP  RH WIND       PRES   REMARKS
SIOUX FALLS    CLOUDY    18  13  80 E14       29.98R WCI   4
HURON          CLOUDY    23  17  78 SE15      29.94R WCI  10
CHAMBERLAIN    SUNNY     33  26  75 CALM      29.87R
MITCHELL       MOSUNNY   27  20  75 SE15      29.93S WCI  15
YANKTON        SUNNY     25  18  74 E14       29.92F WCI  13
$$

ABBREVIATIONS USED IN REMARKS
   TC - TEMPERATURE IN CELSIUS
  WCI - WIND CHILL INDEX
   HX - HEAT INDEX
  VSB - VISIBILITY




USA.gov is the U.S. government's official web portal to all federal, state and local government web resources and services.